Retour au catalogue

DMSP 5D-2 F13 DEB

ActifPO
NORAD 40489·DEBRIS·🇺🇸 United States

Lancé Mar 24, 1995 depuis Vandenberg Space Force Base

Loading…

Prochains Passages (prochaines 24 heures)

TLE

FraisSource: Space-Track

Époque: Sep 13, 2026, 04:45 UTC

1 40489U 95015CC  26256.19827816  .00010030  00000-0  22294-2 0  9993
2 40489  98.7211 242.3224 0033276  42.9174 317.4611 14.56863303594114

Suivez DMSP 5D-2 F13 DEB en temps réel avec AllMySat

Download on the App Store